Location: Sternwarte_Laufen
(47.9344°N, 12.9346°E)
Time: 04:01:46
(UTC+02:00)

ISS - Pass Details

Date: 12 July 2025
Orbit: 413 x 417 km, 51.6° (Epoch: 12 July)

Event Time Altitude Azimuth Distance (km) Brightness Sun altitude
Rises 01:11:17 0° 290° (WNW) 2,357 0.3 -20.1°
Reaches altitude 10° 01:13:25 10° 295° (WNW) 1,493 -0.7 -20.1°
Maximum altitude 01:16:43 56° 14° (NNE) 502 -3.1 -20.1°
Enters shadow 01:19:21 15° 92° (E) 1,231 -1.4 -20.1°
